Overview Statistics Trail Chart Weather Telemetry Raw packets
 

This is the latest recevied weather packets stored in our database for station/object EI8EPB-1. If no packets are shown the sender has not sent any weather packets the latest 10 day(s).

<< 1 2 3 4 5 6 7 >>
Time Temp. Humidity Pressure Rain* Wind** Luminosity Snow
1788543603 16.67° C 81% 1016.2 hPa 0 mm - - -
1788543303 16.11° C 83% 1016.2 hPa 0 mm - - -
1788543003 16.11° C 83% 1016.2 hPa 0 mm - - -
1788542703 16.11° C 84% 1016.3 hPa 0 mm - - -
1788542403 16.11° C 83% 1016.2 hPa 0 mm - - -
1788542103 16.11° C 85% 1016.2 hPa 0 mm - - -
1788541803 15.56° C 85% 1016 hPa 0 mm - - -
1788541503 16.11° C 85% 1016 hPa 0 mm - - -
1788541203 16.11° C 84% 1016 hPa 0 mm - - -
1788540903 16.11° C 82% 1016 hPa 0 mm - - -
1788540603 16.67° C 81% 1016.1 hPa 0 mm - - -
1788540303 17.22° C 77% 1016 hPa 0 mm - - -
1788540003 17.78° C 75% 1015.8 hPa 0 mm - - -
1788539703 17.78° C 75% 1015.7 hPa 0 mm - - -
1788539404 17.78° C 75% 1015.6 hPa 0 mm - - -
1788539103 17.78° C 76% 1015.5 hPa 0 mm - - -
1788538803 17.78° C 75% 1015.5 hPa 0 mm - - -
1788538503 17.78° C 75% 1015.3 hPa 0 mm - - -
1788538203 17.78° C 74% 1015.3 hPa 0 mm - - -
1788537904 18.33° C 76% 1015.3 hPa 0 mm - - -
1788537603 17.78° C 75% 1015.2 hPa 0 mm - - -
1788537303 18.33° C 75% 1015.2 hPa 0 mm - - -
1788537003 17.78° C 75% 1015.1 hPa 0 mm - - -
1788536703 18.33° C 74% 1015 hPa 0 mm - - -
1788536403 18.33° C 72% 1015 hPa 0 mm - - -

* Rain latest hour (hover to see other rain measurements)
** Current wind speed in m/s (hover to see current wind gust speed)